Location: M.A.R.S.Observatory
(35.4031°N, 81.5481°W)
Time: 03:51:13
(UTC-05:00)

Hubble Space Telescope - Visible Passes

Search period start: 01 December 2021 00:00
Search period end: 11 December 2021 00:00
Orbit: 534 x 538 km, 28.5° (Epoch: 30 November)

Date Brightness Start Highest point End Pass type
(mag) Time Alt. Az. Time Alt. Az. Time Alt. Az.
01 Dec 2.1 05:25:24 27° SSW 05:25:43 27° S 05:29:14 10° SE visible
02 Dec 2.4 05:14:56 25° S 05:14:56 25° S 05:17:54 10° SE visible
02 Dec 3.2 06:53:32 10° SW 06:55:02 12° SSW 06:56:33 10° S visible
03 Dec 2.8 05:04:28 20° SSE 05:04:28 20° SSE 05:06:32 10° SE visible
04 Dec 3.3 04:54:01 15° SSE 04:54:01 15° SSE 04:55:06 10° SE visible
05 Dec 3.7 04:43:34 10° SSE 04:43:34 10° SSE 04:43:35 10° SSE visible
